Home > Time Zones > World Clock > Weather > India > Theni > Past weeks

Flag for India Weather past 2 weeks in Theni, Tamil Nadu, India

Now
95 °F

Passing clouds.


Feels Like: 92 °F
Forecast: 72 / 94 °F
Wind: 7 mph from East

Location: Coimbatore / Peelamedu

Current Time: Mar 29, 2015 at 2:53:20 PM

Latest Report: Mar 29, 2015 at 2:30 PM


Visibility: 5 mi

Pressure: 29.83 "Hg

Humidity: 20%

Dew point: 48 °F

Location of TheniLocation

Historic Weather in Theni — Graph

°F

Theni temperature yesterday

Maximum temperature yesterday: 95 °F (at 3:00 PM)
Minimum temperature yesterday: 75 °F (at 5:30 AM)
Average temperature yesterday: 85 °F

Past Weeks' High & Low Weather Summary

 TemperatureHumidityPressure
High99 °F (Mar 23, 3:00 PM)94% (Mar 23, 4:30 AM)30.07 "Hg (Mar 23, 4:30 AM)
Low72 °F (Mar 18, 7:00 AM)16% (Mar 18, 1:30 PM)29.80 "Hg (Mar 23, 3:30 PM)
Average86 °F48%29.94 "Hg
* Reported Mar 14 12:30 PM — Mar 29 12:30 PM, Theni, Weather by CustomWeather, © 2015

Note: Actual official high and low records may vary slightly from our data, if they occured in-between our weather recording intervals... More about our weather records

Advertising

Theni weather history for previous 24 hours

 ConditionsComfort  
Time TempWeatherWind HumidityBarometerVisibility
12:30 PM
Sun, Mar 29
91 °FPassing clouds.7 mph34%29.92 "Hg4 mi
12:00 PM91 °FPassing clouds.2 mph36%29.95 "Hg4 mi
11:30 AM91 °FPassing clouds.9 mph38%29.95 "Hg4 mi
11:00 AM90 °FPassing clouds.12 mph43%29.95 "Hg4 mi
10:30 AM88 °FPassing clouds.6 mph49%29.98 "Hg4 mi
10:00 AM86 °FFog.3 mph52%29.98 "Hg3 mi
9:30 AM84 °FFog.6 mph62%29.98 "Hg3 mi
9:00 AM82 °FFog.5 mph66%29.98 "Hg3 mi
8:30 AM81 °FFog.3 mph70%29.98 "Hg3 mi
7:30 AM77 °FFog.5 mph79%29.98 "Hg2 mi
7:00 AM75 °FFog.3 mph89%29.95 "Hg2 mi
6:30 AM75 °FFog.3 mph89%29.95 "Hg2 mi
6:00 AM75 °FFog.5 mph89%29.92 "Hg2 mi
5:30 AM77 °FFog.7 mph83%29.92 "Hg3 mi
4:30 AM77 °FFog.9 mph79%29.92 "Hg3 mi
2:30 AM79 °FHaze.8 mph70%29.92 "Hg3 mi
12:30 AM81 °FHaze.3 mph70%29.95 "Hg3 mi
11:30 PM
Sat, Mar 28
82 °FPassing clouds.7 mph58%29.95 "Hg4 mi
11:00 PM82 °FPassing clouds.7 mph48%29.95 "Hg4 mi
10:30 PM82 °FPassing clouds.3 mph48%29.95 "Hg4 mi
10:00 PM82 °FPassing clouds.3 mph45%29.92 "Hg4 mi
9:30 PM84 °FPassing clouds.No wind43%29.92 "Hg4 mi
9:00 PM84 °FPassing clouds.No wind43%29.92 "Hg4 mi
8:30 PM84 °FPassing clouds.3 mph43%29.89 "Hg4 mi
8:00 PM86 °FPassing clouds.3 mph38%29.89 "Hg4 mi
7:30 PM88 °FPassing clouds.6 mph35%29.89 "Hg4 mi
7:00 PM90 °FPassing clouds.8 mph29%29.86 "Hg4 mi
6:30 PM91 °FPassing clouds.7 mph24%29.86 "Hg4 mi
6:00 PM91 °FPassing clouds.10 mph24%29.86 "Hg4 mi
5:30 PM93 °FPassing clouds.12 mph24%29.83 "Hg5 mi
4:30 PM95 °FPassing clouds.7 mph23%29.83 "Hg5 mi
4:00 PM95 °FPassing clouds.6 mph25%29.83 "Hg5 mi
3:30 PM95 °FPassing clouds.8 mph25%29.83 "Hg5 mi
3:00 PM95 °FPassing clouds.9 mph26%29.86 "Hg4 mi
2:30 PM93 °FScattered clouds.7 mph32%29.86 "Hg4 mi
2:00 PM91 °FScattered clouds.10 mph34%29.89 "Hg4 mi
Weather by CustomWeather, © 2015

See weather overviewHow to use our weather pages